,

(GMT )
Banff

Weather History for CWZG - May, 2014

Change the Weather History Date:

Monday, May 5, 2014

  Actual Average Record
Temperature  
Mean Temperature 36 °F -  
Max Temperature 45 °F - - ()
Min Temperature 28 °F - - ()
Degree Days  
Heating Degree Days 28    
Moisture  
Dew Point 30 °F    
Average Humidity 84    
Maximum Humidity 100    
Minimum Humidity 55    
Precipitation  
Precipitation 0.05 in - - ()
Sea Level Pressure  
Sea Level Pressure 29.88 in    
Wind  
Wind Speed 3 mph ()    
Max Wind Speed 6 mph    
Max Gust Speed -    
T = Trace of Precipitation, MM = Missing Value Source: Averaged Metar Reports

Daily Weather History Graph

Daily Weather History Graph

Search for Another Location

Airport or City:

Trip Planner

Search our weather history database for the weather conditions in past years. The results will help you decide how hot, cold, wet, or windy it might be!

Date:

Astronomy

May. 05, 2014 Rise Set
Actual Time 6:07 AM MDT 9:11 PM MDT
Civil Twilight 5:28 AM MDT 9:50 PM MDT
Nautical Twilight 4:38 AM MDT 10:41 PM MDT
Astronomical Twilight 3:33 AM MDT 11:46 PM MDT
Moon 11:34 AM MDT (5/5) 1:56 AM MDT (5/5)
Length of Visible Light 16h 21m
Length of Day
15h 03m
Waxing Crescent, 37% of the Moon is Illuminated
May 5
Waxing Crescent
May 6
First Quarter
May 14
Full
May 21
Last Quarter
May 28
New

Hourly Weather History & Observations

Time (MDT) Temp. Windchill Dew Point Humidity Pressure Visibility Wind Dir Wind Speed Gust Speed Precip Events Conditions
12:00 AM 30.7 °F 27.3 °F 29.7 °F 96% 29.92 in - East 3.5 mph - N/A   Unknown
1:00 AM 30.6 °F 27.1 °F 28.9 °F 94% 29.92 in - ENE 3.5 mph - N/A   Unknown
2:00 AM 29.8 °F 26.3 °F 28.8 °F 96% 29.93 in - ENE 3.5 mph - 0.01 in   Unknown
3:00 AM 29.7 °F 26.1 °F 28.2 °F 94% 29.92 in - East 3.5 mph - N/A   Unknown
4:00 AM 29.5 °F 25.9 °F 28.2 °F 95% 29.91 in - East 3.5 mph - N/A   Unknown
5:00 AM 29.1 °F 25.4 °F 28.0 °F 96% 29.92 in - NE 3.5 mph - N/A   Unknown
6:00 AM 28.8 °F - 27.9 °F 96% 29.91 in - ENE 2.3 mph - N/A   Unknown
7:00 AM 28.8 °F 25.0 °F 27.7 °F 96% 29.91 in - ENE 3.5 mph - 0.01 in   Unknown
8:00 AM 29.5 °F 25.9 °F 27.3 °F 92% 29.91 in - East 3.5 mph - 0.01 in   Unknown
9:00 AM 32.9 °F 29.8 °F 26.8 °F 78% 29.90 in - East 3.5 mph - 0.01 in   Unknown
10:00 AM 33.1 °F 30.0 °F 25.5 °F 74% 29.88 in - NE 3.5 mph - N/A   Unknown
11:00 AM 35.4 °F - 27.1 °F 72% 29.87 in - ENE 1.2 mph - N/A   Unknown
12:00 PM 35.2 °F 31.2 °F 27.3 °F 73% 29.87 in - SE 4.6 mph - N/A   Unknown
1:00 PM 37.2 °F 34.7 °F 27.7 °F 68% 29.85 in - ENE 3.5 mph - N/A   Unknown
2:00 PM 39.7 °F - 29.8 °F 68% 29.83 in - South 2.3 mph - N/A   Unknown
3:00 PM 41.4 °F 38.4 °F 34.9 °F 78% 29.82 in - South 4.6 mph - N/A   Unknown
4:00 PM 45.0 °F 41.8 °F 34.7 °F 67% 29.80 in - SW 5.8 mph - N/A   Unknown
5:00 PM 45.0 °F 43.5 °F 29.8 °F 55% 29.80 in - West 3.5 mph - N/A   Unknown
6:00 PM 39.4 °F 37.2 °F 33.6 °F 80% 29.83 in - East 3.5 mph - N/A   Unknown
7:00 PM 37.9 °F 33.5 °F 32.9 °F 82% 29.85 in - East 5.8 mph - N/A   Unknown
8:00 PM 36.1 °F 32.3 °F 32.9 °F 88% 29.87 in - East 4.6 mph - N/A   Unknown
9:00 PM 34.2 °F 30.0 °F 31.8 °F 91% 29.90 in - NE 4.6 mph - N/A   Unknown
10:00 PM 34.0 °F 29.8 °F 31.8 °F 92% 29.92 in - NE 4.6 mph - N/A   Unknown
11:00 PM 31.3 °F 26.6 °F 31.8 °F 100% 29.92 in - NNE 4.6 mph - 0.01 in   Unknown